This demonstration page uses our WeatherBlox Daily Observations layout. Learn more.

Left ArrowRight Arrow

34.16533, -84.80231

Hourly Observations for October 16, 2020

Temp ( °F °C ) Dew Point ( °F °C ) Humidity (%) Winds ( mph kmh ) Pressure ( in mb ) Visibility ( mi km ) Precip ( " mm )
12:53 am 00:53 Clear with Mist and Fog 60 15.6 57 13.9 90 90 Calm 30.01 1016 5 8 0.00 0.00
1:53 am 01:53 Mostly Clear with Mist and Fog 59 15 56 13.3 90 90 NNW 3 6 30.01 1016 5 8 0.00 0.00
2:53 am 02:53 Clear 61 16.1 55 12.8 81 81 VRB 3 6 30.03 1017 10 16 0.00 0.00
3:53 am 03:53 Mostly Clear 61 16.1 51 10.6 70 70 undefined N/A 30.04 1017 10 16 0.00 0.00
4:53 am 04:53 Mostly Cloudy 60 15.6 48 8.9 65 65 VRB 7 11 30.06 1018 10 16 0.00 0.00
5:53 am 05:53 Cloudy 59 15 45 7.2 60 60 N 10 17 30.11 1020 10 16 0.00 0.00
6:53 am 06:53 Mostly Cloudy 58 14.4 45 7.2 62 62 Calm 30.12 1020 10 16 0.00 0.00
7:53 am 07:53 Cloudy 58 14.4 46 7.8 65 65 Calm 30.12 1020 10 16 0.00 0.00
8:53 am 08:53 Cloudy 58 14.4 47 8.3 67 67 Calm 30.14 1021 10 16 0.00 0.00
9:53 am 09:53 Mostly Cloudy 61 16.1 48 8.9 63 63 Calm 30.16 1021 10 16 0.00 0.00
10:53 am 10:53 Mostly Sunny 62 16.7 47 8.3 58 58 VRB 5 7 30.17 1022 10 16 0.00 0.00
11:53 am 11:53 Sunny 62 16.7 45 7.2 54 54 NNW 9 15 30.16 1022 10 16 0.00 0.00
12:53 pm 12:53 Sunny 65 18.3 48 8.9 54 54 VRB 6 9 30.16 1021 10 16 0.00 0.00
1:53 pm 13:53 Sunny 66 18.9 47 8.3 50 50 VRB 6 9 30.15 1021 10 16 0.00 0.00
2:53 pm 14:53 Sunny 68 20 48 8.9 49 49 VRB 7 11 30.13 1020 10 16 0.00 0.00
3:53 pm 15:53 Sunny 68 20 45 7.2 44 44 NNW 9 15 30.13 1020 10 16 0.00 0.00
4:53 pm 16:53 Sunny 69 20.6 45 7.2 42 42 NNW 6 9 30.14 1021 10 16 0.00 0.00
5:53 pm 17:53 Sunny 65 18.3 42 5.6 43 43 N 7 11 30.14 1021 10 16 0.00 0.00
6:53 pm 18:53 Sunny 62 16.7 40 4.4 44 44 VRB 6 9 30.15 1021 10 16 0.00 0.00
7:53 pm 19:53 Clear 58 14.4 40 4.4 51 51 Calm 30.18 1022 10 16 0.00 0.00
8:53 pm 20:53 Clear 54 12.2 41 5 62 62 Calm 30.20 1023 10 16 0.00 0.00
9:53 pm 21:53 Clear 52 11.1 38 3.3 59 59 Calm 30.22 1023 10 16 0.00 0.00
10:53 pm 22:53 Clear 46 7.8 40 4.4 79 79 Calm 30.23 1024 10 16 0.00 0.00
11:53 pm 23:53 Clear 45 7.2 40 4.4 83 83 Calm 30.26 1025 10 16 0.00 0.00

Powered by AerisWeather